OK,56,52,938,56,2014-10-01T01:40:00,0,28072708,190179
OK,56,52,938,56,2014-10-01T01:45:00,0,28073155,190179
OK,56,52,938,56,2014-10-01T01:50:00,0,28073603,190179
OK,56,52,938,56,2014-10-01T01:55:00,0,28073921,190179
OK,56,52,938,56,2014-10-01T02:00:00,0,28074370,190179
OK,56,52,938,56,2014-10-01T02:05:00,0,28074811,190179
OK,56,52,938,56,2014-10-01T02:10:00,0,28075259,190179
OK,56,52,938,56,2014-10-01T02:15:00,0,28075708,190179
OK,56,52,938,56,2014-10-01T02:20:00,0,28076091,190179
OK,56,52,938,56,2014-10-01T02:25:00,0,28076540,190179
OK,56,52,938,56,2014-10-01T02:30:00,0,28076989,190179
OK,56,52,938,56,2014-10-01T02:35:00,0,28077438,190179
OK,56,52,938,56,2014-10-01T02:40:00,0,28077841,190179
OK,56,52,938,56,2014-10-01T02:45:00,0,28078290,190179
OK,56,52,938,56,2014-10-01T02:50:00,0,28078735,190179
OK,56,52,938,56,2014-10-01T02:55:00,0,28079184,190179
OK,56,52,938,56,2014-10-01T03:00:00,0,28079626,190179
OK,56,52,938,56,2014-10-01T03:05:00,0,28080075,190179
OK,56,52,938,56,2014-10-01T03:10:00,0,28080409,190179
OK,56,52,938,56,2014-10-01T03:15:00,0,28080858,190179
OK,56,52,938,56,2014-10-01T03:20:00,0,28081307,190179
OK,56,52,938,56,2014-10-01T03:25:00,0,28081754,190179
OK,56,52,938,56,2014-10-01T03:30:00,0,28082203,190179
OK,56,52,938,56,2014-10-01T03:35:00,0,28082636,190179
OK,56,52,938,56,2014-10-01T03:40:00,0,28083068,190179
OK,56,52,938,56,2014-10-01T03:45:00,0,28083517,190179
OK,56,52,938,56,2014-10-01T03:50:00,0,28083966,190179
OK,56,52,938,56,2014-10-01T03:55:00,0,28084407,190179
OK,56,52,938,56,2014-10-01T04:00:00,0,28084832,190179
OK,56,52,938,56,2014-10-01T04:05:00,0,28085281,190179
OK,56,52,938,56,2014-10-01T04:10:00,0,28085726,190179
OK,56,52,938,56,2014-10-01T04:15:00,0,28086175,190179
OK,56,52,938,56,2014-10-01T04:20:00,0,28086617,190179
OK,56,52,938,56,2014-10-01T04:25:00,0,28087066,190179
OK,56,52,938,56,2014-10-01T04:30:00,0,28087511,190179
OK,56,52,938,56,2014-10-01T04:35:00,0,28087960,190179
OK,56,52,938,56,2014-10-01T04:40:00,0,28088384,190179
OK,56,52,938,56,2014-10-01T04:45:00,0,28088833,190179
OK,56,52,938,56,2014-10-01T04:50:00,0,28089263,190179
OK,56,52,938,56,2014-10-01T04:55:00,0,28089712,190179
OK,56,52,938,56,2014-10-01T05:05:00,0,28090161,190179
OK,56,52,938,56,2014-10-01T05:10:00,0,28090954,190179
OK,56,52,938,56,2014-10-01T05:15:00,0,28091403,190179
OK,56,52,938,56,2014-10-01T05:20:00,0,28091820,190179
OK,56,52,938,56,2014-10-01T05:25:00,0,28092269,190179
OK,56,52,938,56,2014-10-01T05:30:00,0,28092713,190179
OK,56,52,938,56,2014-10-01T05:35:00,0,28093154,190179
OK,56,52,938,56,2014-10-01T05:40:00,0,28093585,190179
OK,56,52,938,56,2014-10-01T05:45:00,0,28094034,190179
OK,56,52,938,56,2014-10-01T05:50:00,0,28094445,190179
OK,56,52,938,56,2014-10-01T05:55:00,0,28094890,190179
OK,56,52,938,56,2014-10-01T06:00:00,0,28095337,190179
OK,56,52,938,56,2014-10-01T06:05:00,0,28095786,190179
OK,436,6,938,436,2014-10-01T06:10:00,2,28096199,190179
OK,436,6,938,436,2014-10-01T06:15:00,2,28096648,190179
OK,436,6,938,436,2014-10-01T06:20:00,0,28097082,190179
OK,436,6,938,436,2014-10-01T06:25:00,0,28097531,190179
OK,99,29,938,99,2014-10-01T06:30:00,2,28097980,190179
OK,90,32,938,90,2014-10-01T06:35:00,1,28098417,190179
OK,46,64,938,46,2014-10-01T06:40:00,1,28098861,190179
OK,230,12,938,230,2014-10-01T06:45:00,3,28099309,190179
OK,275,10,938,275,2014-10-01T06:50:00,1,28099652,190179
OK,275,10,938,275,2014-10-01T06:55:00,0,28100101,190179
OK,275,10,938,275,2014-10-01T07:00:00,0,28100408,190179
OK,275,10,938,275,2014-10-01T07:05:00,0,28100857,190179
OK,275,10,938,275,2014-10-01T07:10:00,0,28101228,190179
OK,275,10,938,275,2014-10-01T07:15:00,0,28101677,190179
OK,275,10,938,275,2014-10-01T07:20:00,0,28102113,190179
OK,967,3,938,967,2014-10-01T07:25:00,2,28102562,190179
OK,93,31,938,93,2014-10-01T07:30:00,1,28102990,190179
OK,93,31,938,93,2014-10-01T07:35:00,0,28103436,190179
OK,93,31,938,93,2014-10-01T07:40:00,0,28103881,190179
OK,93,31,938,93,2014-10-01T07:45:00,0,28104326,190179
OK,87,34,938,87,2014-10-01T07:50:00,1,28104767,190179
OK,87,34,938,87,2014-10-01T07:55:00,1,28105212,190179
OK,87,34,938,87,2014-10-01T08:00:00,0,28105652,190179
OK,62,47,938,62,2014-10-01T08:05:00,1,28106101,190179
OK,62,47,938,62,2014-10-01T08:10:00,1,28106538,190179
OK,62,47,938,62,2014-10-01T08:15:00,0,28106944,190179
OK,62,47,938,62,2014-10-01T08:20:00,0,28107376,190179
OK,62,47,938,62,2014-10-01T08:25:00,0,28107825,190179
OK,62,47,938,62,2014-10-01T08:30:00,0,28108264,190179
OK,62,47,938,62,2014-10-01T08:35:00,0,28108713,190179
OK,62,47,938,62,2014-10-01T08:40:00,0,28109141,190179
OK,62,47,938,62,2014-10-01T08:45:00,0,28109590,190179
OK,62,47,938,62,2014-10-01T08:50:00,0,28109933,190179
OK,62,47,938,62,2014-10-01T08:55:00,0,28110382,190179
OK,62,47,938,62,2014-10-01T09:00:00,0,28110805,190179
OK,62,47,938,62,2014-10-01T09:05:00,0,28111254,190179
OK,62,47,938,62,2014-10-01T09:10:00,0,28111683,190179
OK,62,47,938,62,2014-10-01T09:15:00,0,28112132,190179
OK,62,47,938,62,2014-10-01T09:20:00,0,28112473,190179
OK,87,34,938,87,2014-10-01T09:25:00,1,28112922,190179
OK,87,34,938,87,2014-10-01T09:30:00,1,28113346,190179
OK,87,34,938,87,2014-10-01T09:35:00,0,28113795,190179
OK,87,34,938,87,2014-10-01T09:40:00,0,28114227,190179
OK,87,34,938,87,2014-10-01T09:45:00,0,28114676,190179
OK,87,34,938,87,2014-10-01T09:50:00,0,28115030,190179
OK,87,34,938,87,2014-10-01T09:55:00,0,28115479,190179
OK,87,34,938,87,2014-10-01T10:00:00,0,28115891,190179
OK,87,34,938,87,2014-10-01T10:05:00,0,28116340,190179
OK,87,34,938,87,2014-10-01T10:10:00,0,28116748,190179
OK,87,34,938,87,2014-10-01T10:15:00,0,28117197,190179
OK,87,34,938,87,2014-10-01T10:20:00,0,28117622,190179
OK,87,34,938,87,2014-10-01T10:25:00,0,28118071,190179
OK,87,34,938,87,2014-10-01T10:30:00,0,28118516,190179
OK,87,34,938,87,2014-10-01T10:35:00,0,28118963,190179
OK,210,14,938,210,2014-10-01T10:40:00,1,28119407,190179
OK,210,14,938,210,2014-10-01T10:45:00,1,28119855,190179
OK,210,14,938,210,2014-10-01T10:50:00,0,28120303,190179
OK,210,14,938,210,2014-10-01T10:55:00,0,28120752,190179
OK,210,14,938,210,2014-10-01T11:00:00,0,28121135,190179
OK,210,14,938,210,2014-10-01T11:05:00,0,28121584,190179
OK,210,14,938,210,2014-10-01T11:10:00,0,28122022,190179
OK,210,14,938,210,2014-10-01T11:15:00,0,28122471,190179
OK,210,14,938,210,2014-10-01T11:20:00,0,28122912,190179
OK,87,34,938,87,2014-10-01T11:25:00,1,28123361,190179
OK,87,34,938,87,2014-10-01T11:30:00,1,28123793,190179
OK,87,34,938,87,2014-10-01T11:35:00,0,28124242,190179
OK,168,17,938,168,2014-10-01T11:40:00,1,28124644,190179
OK,168,17,938,168,2014-10-01T11:45:00,1,28125093,190179
OK,168,17,938,168,2014-10-01T11:50:00,0,28125522,190179
OK,168,17,938,168,2014-10-01T11:55:00,0,28125971,190179
OK,168,17,938,168,2014-10-01T12:00:00,0,28126323,190179
OK,168,17,938,168,2014-10-01T12:05:00,0,28126772,190179
OK,168,17,938,168,2014-10-01T12:10:00,0,28127221,190179
OK,168,17,938,168,2014-10-01T12:15:00,0,28127670,190179
OK,168,17,938,168,2014-10-01T12:20:00,0,28128098,190179
OK,168,17,938,168,2014-10-01T12:25:00,0,28128547,190179
OK,168,17,938,168,2014-10-01T12:30:00,0,28128982,190179
OK,168,17,938,168,2014-10-01T12:35:00,0,28129431,190179
OK,168,17,938,168,2014-10-01T12:40:00,0,28129865,190179
OK,168,17,938,168,2014-10-01T12:45:00,0,28130314,190179
OK,168,17,938,168,2014-10-01T12:50:00,0,28130742,190179
OK,247,11,938,247,2014-10-01T12:55:00,1,28131191,190179
OK,175,16,938,175,2014-10-01T13:00:00,2,28131628,190179
OK,104,28,938,104,2014-10-01T13:05:00,1,28132077,190179
OK,104,28,938,104,2014-10-01T13:10:00,0,28132515,190179
OK,114,25,938,114,2014-10-01T13:15:00,1,28132962,190179
OK,114,25,938,114,2014-10-01T13:20:00,1,28133400,190179
OK,114,25,938,114,2014-10-01T13:25:00,0,28133849,190179
OK,114,25,938,114,2014-10-01T13:30:00,0,28134288,190179
OK,114,25,938,114,2014-10-01T13:35:00,0,28134737,190179
OK,114,25,938,114,2014-10-01T13:40:00,0,28135156,190179
OK,114,25,938,114,2014-10-01T13:45:00,0,28135605,190179
OK,114,25,938,114,2014-10-01T13:50:00,0,28136042,190179
OK,114,25,938,114,2014-10-01T13:55:00,0,28136491,190179
OK,114,25,938,114,2014-10-01T14:00:00,0,28136931,190179
OK,114,25,938,114,2014-10-01T14:05:00,0,28137380,190179
OK,114,25,938,114,2014-10-01T14:10:00,0,28137814,190179
OK,114,25,938,114,2014-10-01T14:15:00,0,28138263,190179
OK,114,25,938,114,2014-10-01T14:20:00,0,28138691,190179
OK,114,25,938,114,2014-10-01T14:25:00,0,28139140,190179
OK,114,25,938,114,2014-10-01T14:30:00,0,28139551,190179
OK,114,25,938,114,2014-10-01T14:35:00,0,28140000,190179
OK,114,25,938,114,2014-10-01T14:40:00,0,28140442,190179
OK,114,25,938,114,2014-10-01T14:45:00,0,28140891,190179
OK,114,25,938,114,2014-10-01T14:50:00,0,28141317,190179
OK,114,25,938,114,2014-10-01T14:55:00,0,28141766,190179
OK,114,25,938,114,2014-10-01T15:00:00,0,28142194,190179
OK,114,25,938,114,2014-10-01T15:05:00,0,28142643,190179
OK,114,25,938,114,2014-10-01T15:10:00,0,28143070,190179
OK,114,25,938,114,2014-10-01T15:15:00,0,28143519,190179
OK,114,25,938,114,2014-10-01T15:20:00,0,28143967,190179
OK,114,25,938,114,2014-10-01T15:25:00,0,28144416,190179
OK,114,25,938,114,2014-10-01T15:30:00,0,28144837,190179
OK,114,25,938,114,2014-10-01T15:35:00,0,28145251,190179
OK,114,25,938,114,2014-10-01T15:40:00,0,28145700,190179
OK,114,25,938,114,2014-10-01T15:45:00,0,28146149,190179
OK,114,25,938,114,2014-10-01T15:50:00,0,28146598,190179
OK,515,5,938,515,2014-10-01T15:55:00,1,28147006,190179
OK,515,5,938,515,2014-10-01T16:00:00,0,28147450,190179
OK,515,5,938,515,2014-10-01T16:05:00,0,28147899,190179
OK,515,5,938,515,2014-10-01T16:10:00,0,28148300,190179
OK,515,5,938,515,2014-10-01T16:15:00,0,28148749,190179
OK,515,5,938,515,2014-10-01T16:20:00,0,28149188,190179
OK,515,5,938,515,2014-10-01T16:25:00,0,28149637,190179
OK,515,5,938,515,2014-10-01T16:30:00,0,28150063,190179
OK,515,5,938,515,2014-10-01T16:35:00,0,28150512,190179
OK,515,5,938,515,2014-10-01T16:40:00,0,28150930,190179
OK,515,5,938,515,2014-10-01T16:45:00,0,28151379,190179
OK,515,5,938,515,2014-10-01T16:50:00,0,28151828,190179
OK,515,5,938,515,2014-10-01T17:00:00,0,28152277,190179
OK,515,5,938,515,2014-10-01T17:05:00,0,28152723,190179
OK,515,5,938,515,2014-10-01T17:10:00,0,28153170,190179
OK,515,5,938,515,2014-10-01T17:15:00,0,28153619,190179
OK,515,5,938,515,2014-10-01T17:20:00,0,28154029,190179
OK,515,5,938,515,2014-10-01T17:25:00,0,28154478,190179
OK,515,5,938,515,2014-10-01T17:30:00,0,28154920,190179
OK,515,5,938,515,2014-10-01T17:35:00,0,28155368,190179
OK,515,5,938,515,2014-10-01T17:40:00,0,28155786,190179
OK,515,5,938,515,2014-10-01T17:45:00,0,28156235,190179
OK,515,5,938,515,2014-10-01T17:50:00,0,28156684,190179
OK,515,5,938,515,2014-10-01T17:55:00,0,28157122,190179
OK,515,5,938,515,2014-10-01T18:00:00,0,28157552,190179
OK,515,5,938,515,2014-10-01T18:05:00,0,28158000,190179
OK,515,5,938,515,2014-10-01T18:10:00,0,28158444,190179
OK,515,5,938,515,2014-10-01T18:15:00,0,28158890,190179
OK,515,5,938,515,2014-10-01T18:20:00,0,28159336,190179
OK,515,5,938,515,2014-10-01T18:25:00,0,28159671,190179
OK,515,5,938,515,2014-10-01T18:30:00,0,28160120,190179
OK,515,5,938,515,2014-10-01T18:35:00,0,28160569,190179
OK,515,5,938,515,2014-10-01T18:40:00,0,28161007,190179
OK,515,5,938,515,2014-10-01T18:45:00,0,28161456,190179
OK,515,5,938,515,2014-10-01T18:50:00,0,28161873,190179
OK,515,5,938,515,2014-10-01T18:55:00,0,28162322,190179
OK,515,5,938,515,2014-10-01T19:00:00,0,28162716,190179
OK,515,5,938,515,2014-10-01T19:05:00,0,28163155,190179
OK,515,5,938,515,2014-10-01T19:10:00,0,28163603,190179
OK,515,5,938,515,2014-10-01T19:15:00,0,28164052,190179
OK,515,5,938,515,2014-10-01T19:20:00,0,28164483,190179
OK,515,5,938,515,2014-10-01T19:25:00,0,28164932,190179
OK,515,5,938,515,2014-10-01T19:30:00,0,28165357,190179
OK,515,5,938,515,2014-10-01T19:35:00,0,28165805,190179
OK,515,5,938,515,2014-10-01T19:40:00,0,28166246,190179
OK,515,5,938,515,2014-10-01T19:45:00,0,28166608,190179
OK,515,5,938,515,2014-10-01T19:50:00,0,28167057,190179
OK,515,5,938,515,2014-10-01T19:55:00,0,28167486,190179
OK,515,5,938,515,2014-10-01T20:00:00,0,28167919,190179
OK,515,5,938,515,2014-10-01T20:05:00,0,28168368,190179
OK,515,5,938,515,2014-10-01T20:10:00,0,28168813,190179
OK,515,5,938,515,2014-10-01T20:15:00,0,28169262,190179
OK,515,5,938,515,2014-10-01T20:20:00,0,28169710,190179
OK,515,5,938,515,2014-10-01T20:25:00,0,28170136,190179
OK,515,5,938,515,2014-10-01T20:30:00,0,28170581,190179
OK,515,5,938,515,2014-10-01T20:35:00,0,28171029,190179
OK,515,5,938,515,2014-10-01T20:40:00,0,28171466,190179
OK,515,5,938,515,2014-10-01T20:45:00,0,28171912,190179
OK,515,5,938,515,2014-10-01T20:50:00,0,28172360,190179
OK,515,5,938,515,2014-10-01T20:55:00,0,28172806,190179
OK,515,5,938,515,2014-10-01T21:00:00,0,28173252,190179
OK,515,5,938,515,2014-10-01T21:05:00,0,28173701,190179
OK,515,5,938,515,2014-10-01T21:10:00,0,28174142,190179
OK,515,5,938,515,2014-10-01T21:15:00,0,28174591,190179
OK,515,5,938,515,2014-10-01T21:20:00,0,28175017,190179
OK,515,5,938,515,2014-10-01T21:25:00,0,28175413,190179
OK,515,5,938,515,2014-10-01T21:30:00,0,28175862,190179
OK,515,5,938,515,2014-10-01T21:35:00,0,28176311,190179
OK,515,5,938,515,2014-10-01T21:40:00,0,28176760,190179
OK,515,5,938,515,2014-10-01T21:45:00,0,28177116,190179
OK,515,5,938,515,2014-10-01T21:50:00,0,28177556,190179
OK,515,5,938,515,2014-10-01T21:55:00,0,28178002,190179
OK,515,5,938,515,2014-10-01T22:00:00,0,28178451,190179
OK,515,5,938,515,2014-10-01T22:05:00,0,28178898,190179
OK,515,5,938,515,2014-10-01T22:10:00,0,28179332,190179
OK,515,5,938,515,2014-10-01T22:15:00,0,28179775,190179
OK,515,5,938,515,2014-10-01T22:20:00,0,28180222,190179
OK,515,5,938,515,2014-10-01T22:25:00,0,28180620,190179
OK,515,5,938,515,2014-10-01T22:30:00,0,28181069,190179
OK,515,5,938,515,2014-10-01T22:35:00,0,28181493,190179
OK,515,5,938,515,2014-10-01T22:40:00,0,28181941,190179
OK,515,5,938,515,2014-10-01T22:45:00,0,28182388,190179
OK,515,5,938,515,2014-10-01T22:50:00,0,28182837,190179
OK,515,5,938,515,2014-10-01T22:55:00,0,28183254,190179
OK,515,5,938,515,2014-10-01T23:00:00,0,28183687,190179
OK,515,5,938,515,2014-10-01T23:05:00,0,28184132,190179
OK,515,5,938,515,2014-10-01T23:10:00,0,28184581,190179
OK,515,5,938,515,2014-10-01T23:15:00,0,28185016,190179
OK,515,5,938,515,2014-10-01T23:20:00,0,28185464,190179
OK,515,5,938,515,2014-10-01T23:25:00,0,28185895,190179
OK,515,5,938,515,2014-10-01T23:30:00,0,28186287,190179
OK,515,5,938,515,2014-10-01T23:40:00,0,28187134,190179
OK,515,5,938,515,2014-10-01T23:55:00,0,28188466,190179
OK,515,5,938,515,2014-10-02T00:00:00,0,28188902,190179
OK,515,5,938,515,2014-10-02T00:05:00,0,28189351,190179
OK,515,5,938,515,2014-10-02T00:10:00,0,28189773,190179
OK,515,5,938,515,2014-10-02T00:15:00,0,28190222,190179
OK,515,5,938,515,2014-10-02T00:20:00,0,28190575,190179
OK,515,5,938,515,2014-10-02T00:25:00,0,28191024,190179
OK,515,5,938,515,2014-10-02T00:30:00,0,28191473,190179
OK,515,5,938,515,2014-10-02T00:35:00,0,28191779,190179
OK,515,5,938,515,2014-10-02T00:40:00,0,28192228,190179
OK,515,5,938,515,2014-10-02T00:45:00,0,28192661,190179
OK,515,5,938,515,2014-10-02T00:50:00,0,28193105,190179
OK,515,5,938,515,2014-10-02T00:55:00,0,28193472,190179
OK,515,5,938,515,2014-10-02T01:05:00,0,28194370,190179
OK,515,5,938,515,2014-10-02T01:15:00,0,28194819,190179
OK,515,5,938,515,2014-10-02T01:20:00,0,28195504,190179
OK,515,5,938,515,2014-10-02T01:30:00,0,28195953,190179
OK,515,5,938,515,2014-10-02T01:35:00,0,28196686,190179
OK,515,5,938,515,2014-10-02T01:40:00,0,28197109,190179
OK,515,5,938,515,2014-10-02T01:45:00,0,28197558,190179
OK,515,5,938,515,2014-10-02T01:50:00,0,28198006,190179
OK,515,5,938,515,2014-10-02T01:55:00,0,28198454,190179
OK,515,5,938,515,2014-10-02T02:00:00,0,28198903,190179
OK,515,5,938,515,2014-10-02T02:05:00,0,28199275,190179
OK,515,5,938,515,2014-10-02T02:10:00,0,28199717,190179
OK,515,5,938,515,2014-10-02T02:15:00,0,28200159,190179
OK,515,5,938,515,2014-10-02T02:20:00,0,28200602,190179
OK,515,5,938,515,2014-10-02T02:25:00,0,28201051,190179
OK,515,5,938,515,2014-10-02T02:30:00,0,28201482,190179
OK,515,5,938,515,2014-10-02T02:45:00,0,28202380,190179
OK,515,5,938,515,2014-10-02T02:50:00,0,28202822,190179
OK,515,5,938,515,2014-10-02T02:55:00,0,28203270,190179
OK,515,5,938,515,2014-10-02T03:00:00,0,28203705,190179
OK,515,5,938,515,2014-10-02T03:10:00,0,28204154,190179
OK,515,5,938,515,2014-10-02T03:25:00,0,28204603,190179
OK,515,5,938,515,2014-10-02T03:30:00,0,28205052,190179
OK,515,5,938,515,2014-10-02T03:35:00,0,28205480,190179
OK,515,5,938,515,2014-10-02T03:40:00,0,28205927,190179
OK,515,5,938,515,2014-10-02T03:45:00,0,28206310,190179
OK,515,5,938,515,2014-10-02T03:55:00,0,28207208,190179
OK,515,5,938,515,2014-10-02T04:00:00,0,28207628,190179
OK,515,5,938,515,2014-10-02T04:05:00,0,28208076,190179
OK,515,5,938,515,2014-10-02T04:10:00,0,28208503,190179
OK,515,5,938,515,2014-10-02T04:15:00,0,28208952,190179
OK,515,5,938,515,2014-10-02T04:20:00,0,28209390,190179
OK,515,5,938,515,2014-10-02T04:25:00,0,28209839,190179
OK,515,5,938,515,2014-10-02T04:30:00,0,28210262,190179
OK,515,5,938,515,2014-10-02T04:35:00,0,28210711,190179
OK,515,5,938,515,2014-10-02T04:40:00,0,28211136,190179
OK,515,5,938,515,2014-10-02T04:45:00,0,28211580,190179
OK,515,5,938,515,2014-10-02T04:50:00,0,28211958,190179
OK,515,5,938,515,2014-10-02T04:55:00,0,28212407,190179
OK,515,5,938,515,2014-10-02T05:00:00,0,28212836,190179
OK,515,5,938,515,2014-10-02T05:05:00,0,28213285,190179
OK,515,5,938,515,2014-10-02T05:10:00,0,28213723,190179
OK,515,5,938,515,2014-10-02T05:15:00,0,28214172,190179
OK,515,5,938,515,2014-10-02T05:20:00,0,28214585,190179
OK,515,5,938,515,2014-10-02T05:25:00,0,28215034,190179
OK,515,5,938,515,2014-10-02T05:30:00,0,28215450,190179
OK,515,5,938,515,2014-10-02T05:40:00,0,28215899,190179
OK,515,5,938,515,2014-10-02T05:45:00,0,28216678,190179
OK,515,5,938,515,2014-10-02T05:50:00,0,28217125,190179
OK,515,5,938,515,2014-10-02T05:55:00,0,28217574,190179
OK,515,5,938,515,2014-10-02T06:00:00,0,28218013,190179
OK,515,5,938,515,2014-10-02T06:05:00,0,28218462,190179
OK,515,5,938,515,2014-10-02T06:10:00,0,28218882,190179
OK,103,28,938,103,2014-10-02T06:15:00,2,28219331,190179
OK,103,28,938,103,2014-10-02T06:20:00,0,28219704,190179
OK,103,28,938,103,2014-10-02T06:25:00,0,28220153,190179
OK,103,28,938,103,2014-10-02T06:30:00,0,28220587,190179
OK,103,28,938,103,2014-10-02T06:35:00,0,28221036,190179
OK,139,21,938,139,2014-10-02T06:40:00,1,28221417,190179
OK,145,20,938,145,2014-10-02T06:45:00,2,28221703,190179
OK,137,21,938,137,2014-10-02T07:00:00,1,28222297,190179
OK,106,27,938,106,2014-10-02T07:05:00,1,28222746,190179
OK,105,28,938,105,2014-10-02T07:10:00,4,28223177,190179
OK,105,28,938,105,2014-10-02T07:15:00,3,28223612,190179
OK,106,27,938,106,2014-10-02T07:20:00,0,28224060,190179
OK,135,21,938,135,2014-10-02T07:25:00,1,28224415,190179
OK,135,21,938,135,2014-10-02T07:30:00,0,28224864,190179
OK,135,21,938,135,2014-10-02T07:35:00,0,28225313,190179
OK,135,21,938,135,2014-10-02T07:40:00,0,28225635,190179
OK,135,21,938,135,2014-10-02T07:50:00,0,28226525,190179
OK,135,21,938,135,2014-10-02T07:55:00,0,28226974,190179
OK,135,21,938,135,2014-10-02T08:00:00,0,28227389,190179
OK,135,21,938,135,2014-10-02T08:05:00,0,28227838,190179
OK,135,21,938,135,2014-10-02T08:10:00,0,28228197,190179
OK,89,33,938,89,2014-10-02T08:15:00,0,28228646,190179
OK,89,33,938,89,2014-10-02T08:20:00,0,28229056,190179
OK,89,33,938,89,2014-10-02T08:25:00,0,28229505,190179
OK,89,33,938,89,2014-10-02T08:30:00,0,28229855,190179
OK,89,33,938,89,2014-10-02T08:35:00,0,28230304,190179
OK,89,33,938,89,2014-10-02T08:40:00,0,28230670,190179
OK,89,33,938,89,2014-10-02T08:45:00,0,28231119,190179
OK,89,33,938,89,2014-10-02T08:50:00,0,28231542,190179
OK,89,33,938,89,2014-10-02T08:55:00,0,28231991,190179
OK,125,23,938,125,2014-10-02T09:00:00,1,28232333,190179
OK,125,23,938,125,2014-10-02T09:10:00,0,28232782,190179
OK,125,23,938,125,2014-10-02T09:15:00,0,28233231,190179
OK,125,23,938,125,2014-10-02T09:20:00,0,28233655,190179
OK,125,23,938,125,2014-10-02T09:25:00,0,28234104,190179
OK,125,23,938,125,2014-10-02T09:30:00,0,28234437,190179
OK,125,23,938,125,2014-10-02T09:35:00,0,28234886,190179
OK,125,23,938,125,2014-10-02T09:40:00,0,28235313,190179
OK,125,23,938,125,2014-10-02T09:45:00,0,28235762,190179
OK,125,23,938,125,2014-10-02T09:50:00,0,28236205,190179
OK,125,23,938,125,2014-10-02T09:55:00,0,28236652,190179
OK,125,23,938,125,2014-10-02T10:00:00,0,28237055,190179
OK,125,23,938,125,2014-10-02T10:05:00,0,28237503,190179
OK,125,23,938,125,2014-10-02T10:10:00,0,28237951,190179
OK,125,23,938,125,2014-10-02T10:15:00,0,28238398,190179
OK,125,23,938,125,2014-10-02T10:20:00,0,28238839,190179
OK,125,23,938,125,2014-10-02T10:25:00,0,28239288,190179
OK,125,23,938,125,2014-10-02T10:30:00,0,28239718,190179
OK,125,23,938,125,2014-10-02T10:35:00,0,28240167,190179
OK,125,23,938,125,2014-10-02T10:40:00,0,28240611,190179
OK,125,23,938,125,2014-10-02T10:45:00,0,28241060,190179
OK,125,23,938,125,2014-10-02T10:50:00,0,28241492,190179
OK,125,23,938,125,2014-10-02T10:55:00,0,28241940,190179
OK,125,23,938,125,2014-10-02T11:00:00,0,28242336,190179
OK,125,23,938,125,2014-10-02T11:05:00,0,28242785,190179
OK,125,23,938,125,2014-10-02T11:15:00,0,28243234,190179
OK,125,23,938,125,2014-10-02T11:20:00,0,28243997,190179
OK,125,23,938,125,2014-10-02T11:25:00,0,28244426,190179
OK,125,23,938,125,2014-10-02T11:30:00,0,28244875,190179
OK,161,18,938,161,2014-10-02T11:35:00,1,28245324,190179
OK,161,18,938,161,2014-10-02T11:40:00,0,28245730,190179
OK,161,18,938,161,2014-10-02T11:45:00,0,28246179,190179
OK,172,17,938,172,2014-10-02T11:50:00,1,28246616,190179
OK,172,17,938,172,2014-10-02T11:55:00,0,28247065,190179
OK,156,18,938,156,2014-10-02T12:00:00,1,28247511,190179
OK,156,18,938,156,2014-10-02T12:05:00,0,28247941,190179
OK,156,18,938,156,2014-10-02T12:10:00,0,28248390,190179
OK,156,18,938,156,2014-10-02T12:15:00,0,28248837,190179
OK,156,18,938,156,2014-10-02T12:20:00,0,28249265,190179
OK,156,18,938,156,2014-10-02T12:25:00,0,28249709,190179
OK,156,18,938,156,2014-10-02T12:30:00,0,28250128,190179
OK,156,18,938,156,2014-10-02T12:35:00,0,28250526,190179
OK,156,18,938,156,2014-10-02T12:45:00,0,28251306,190179
OK,156,18,938,156,2014-10-02T13:20:00,0,28251851,190179
OK,156,18,938,156,2014-10-02T13:30:00,0,28252435,190179
OK,156,18,938,156,2014-10-02T13:35:00,0,28252877,190179
OK,156,18,938,156,2014-10-02T13:40:00,0,28253294,190179
OK,156,18,938,156,2014-10-02T13:45:00,0,28253743,190179
OK,156,18,938,156,2014-10-02T13:50:00,0,28254148,190179
OK,156,18,938,156,2014-10-02T13:55:00,0,28254469,190179
OK,156,18,938,156,2014-10-02T14:10:00,0,28255046,190179
OK,156,18,938,156,2014-10-02T14:15:00,0,28255495,190179
OK,156,18,938,156,2014-10-02T14:20:00,0,28255923,190179
OK,156,18,938,156,2014-10-02T14:25:00,0,28256372,190179
OK,156,18,938,156,2014-10-02T14:30:00,0,28256800,190179
OK,156,18,938,156,2014-10-02T14:35:00,0,28257249,190179
OK,156,18,938,156,2014-10-02T14:40:00,0,28257690,190179
OK,156,18,938,156,2014-10-02T14:45:00,0,28258138,190179
OK,156,18,938,156,2014-10-02T14:50:00,0,28258571,190179
OK,156,18,938,156,2014-10-02T14:55:00,0,28259017,190179
OK,156,18,938,156,2014-10-02T15:00:00,0,28259466,190179
OK,156,18,938,156,2014-10-02T15:05:00,0,28259913,190179
OK,156,18,938,156,2014-10-02T15:10:00,0,28260346,190179
OK,156,18,938,156,2014-10-02T15:15:00,0,28260795,190179
OK,156,18,938,156,2014-10-02T15:20:00,0,28261235,190179
OK,78,37,938,78,2014-10-02T15:25:00,1,28261617,190179
OK,78,37,938,78,2014-10-02T15:30:00,0,28262047,190179
OK,98,30,938,98,2014-10-02T15:40:00,0,28262940,190179
OK,98,30,938,98,2014-10-02T15:45:00,0,28263378,190179